Location: Bergheim
(50.9593°N, 6.6400°E)
Time: 05:44:28
(UTC+02:00)

ISS - Visible Passes

Search period start: 18 May 2021 00:00
Search period end: 28 May 2021 00:00
Orbit: 417 x 422 km, 51.6° (Epoch: 18 May)

Date Brightness Start Highest point End Pass type
(mag) Time Alt. Az. Time Alt. Az. Time Alt. Az.
18 May -3.8 01:18:19 10° W 01:21:42 85° N 01:22:53 38° E visible
18 May -1.5 02:55:13 10° W 02:55:46 14° W 02:55:46 14° W visible
18 May -3.9 22:54:00 10° WSW 22:57:22 76° SSE 23:00:44 10° ENE visible
19 May -3.7 00:30:50 10° W 00:34:14 78° N 00:36:27 20° E visible
19 May -2.3 02:07:42 10° W 02:09:22 26° W 02:09:22 26° W visible
19 May -3.7 22:06:36 10° WSW 22:09:55 60° SSE 22:13:16 10° E visible
19 May -3.6 23:43:21 10° W 23:46:44 77° N 23:50:07 10° E visible
20 May -3.7 01:20:13 10° WNW 01:23:12 60° WSW 01:23:12 60° WSW visible
20 May -3.7 22:55:52 10° W 22:59:15 81° N 23:02:37 10° E visible
21 May -3.9 00:32:45 10° WNW 00:36:07 84° SSW 00:37:06 43° ESE visible
21 May -1.2 02:09:45 10° W 02:10:02 12° W 02:10:02 12° W visible
21 May -3.7 22:08:23 10° WSW 22:11:45 90° NNW 22:15:08 10° E visible
21 May -3.8 23:45:16 10° W 23:48:39 85° N 23:51:03 18° E visible
22 May -2.3 01:22:09 10° W 01:23:59 26° WSW 01:23:59 26° WSW visible
22 May -3.6 22:57:47 10° W 23:01:09 78° N 23:04:32 10° E visible
23 May -3.6 00:34:37 10° W 00:37:55 51° SSW 00:37:58 51° SSW visible
23 May -3.6 22:10:16 10° W 22:13:39 77° N 22:17:01 10° E visible
23 May -3.8 23:47:08 10° WNW 23:50:29 68° SSW 23:51:59 30° ESE visible
24 May -1.3 01:24:24 10° W 01:24:55 13° WSW 01:24:55 13° WSW visible
24 May -3.8 22:59:38 10° WNW 23:03:01 83° SSW 23:06:01 13° ESE visible
25 May -2.4 00:36:39 10° W 00:38:57 25° SW 00:38:57 25° SW visible
25 May -3.7 22:12:09 10° W 22:15:32 85° N 22:18:54 10° E visible
25 May -3.1 23:49:02 10° W 23:52:12 37° SSW 23:53:00 32° S visible
26 May -3.5 23:01:29 10° W 23:04:47 51° SSW 23:07:05 18° SE visible
27 May -1.3 00:39:20 10° WSW 00:40:02 12° WSW 00:40:02 12° WSW visible
27 May -3.7 22:13:59 10° WNW 22:17:20 68° SSW 22:20:41 10° ESE visible
27 May -2.1 23:51:15 10° W 23:53:44 19° SW 23:54:09 19° SSW visible
